Temp
59 59 59 59 59 59 58 58 58 58 59 59 59 62 61 61 59 60 61 60 60 60 60 60 61 64 69 71 72 69 65 69 63 62 69 69 66 66 70 71 72 74 75
55 57 56 55 54 55 56 56 56 55 56 56 55 56 56 57 57 59 59 60 59 58 58 57 58 59 59 63 67 69 69 65 65 66 63 63 69 65 69 70 71 73 74
53 55 56 53 53 53 53 55 55 55 54 54 54 54 53 54 53 53 54 56 58 58 57 56 56 56 58 57 58 59 61 64 70 65 66 60 61 67 66 66 70 71 72
55 55 53 52 52 51 52 54 54 53 54 52 51 49 48 47 49 50 52 53 54 54 55 55 55 54 54 55 55 59 58 59 60 66 66 68 69 63 63 70 63 65 67
54 52 51 51 51 51 50 51 53 53 51 49 49 48 46 47 48 49 49 50 51 52 52 52 51 51 53 54 55 54 56 56 57 55 61 65 66 67 62 61 67 71 68
53 53 53 52 50 49 49 49 51 51 51 49 48 46 44 45 46 45 46 47 49 50 51 51 50 50 50 51 52 54 55 55 53 55 55 55 60 65 64 62 64 65 70
52 50 50 49 49 49 49 50 50 50 49 49 48 47 45 45 44 44 45 45 47 47 48 48 48 48 49 50 51 52 53 53 51 52 52 55 55 56 59 66 66 65 69
53 51 50 49 50 50 49 49 50 51 50 49 48 47 47 45 45 44 44 44 45 46 48 47 48 48 49 49 49 49 49 53 51 51 51 51 53 55 55 54 55 60 65
52 52 51 50 49 49 49 49 49 50 49 49 48 47 47 46 46 46 45 45 45 50 49 47 47 48 48 48 47 47 47 50 51 49 49 49 51 52 53 55 56 54 53
52 51 51 50 50 50 49 48 49 49 49 48 47 48 47 47 46 45 45 45 47 48 47 47 48 47 47 47 47 46 47 49 48 48 47 47 49 50 52 53 55 56 56
52 52 51 51 50 49 48 48 49 49 48 48 47 47 46 46 46 45 45 45 45 47 47 47 47 47 48 47 46 46 47 48 47 46 46 45 46 47 49 52 53 53 54
53 52 51 50 49 49 49 48 47 48 48 48 47 46 46 45 44 44 44 44 44 45 46 47 46 47 46 46 45 45 47 46 44 45 43 43 46 44 47 50 50 51 52
51 51 50 50 49 49 49 48 48 48 49 49 46 45 45 44 43 43 43 44 44 45 45 45 44 44 44 44 44 45 44 44 45 44 42 42 43 42 45 48 47 49 51
53 50 49 48 48 49 48 49 48 48 48 47 46 44 43 44 43 43 44 44 45 44 43 43 42 42 43 44 45 44 43 43 44 44 44 43 44 43 43 43 45 48 49
52 51 48 47 47 47 47 48 48 48 47 46 45 44 44 44 44 43 43 43 42 42 42 42 42 42 44 47 43 42 42 41 42 43 45 45 44 44 43 44 44 44 46
52 51 50 50 49 48 47 48 47 47 46 45 45 45 45 44 42 42 42 41 40 40 40 40 40 41 44 42 41 40 40 40 41 40 42 44 44 44 42 41 41 40 42
51 51 50 49 48 47 47 46 47 46 45 45 46 45 44 43 41 41 40 38 38 38 38 39 40 40 42 40 40 39 39 39 39 40 40 42 44 42 44 42 40 40 40
51 50 49 47 47 46 46 46 47 45 44 44 44 44 43 41 40 39 38 37 38 37 37 39 41 39 42 40 39 38 39 39 39 40 40 39 40 41 40 40 40 40 42
49 49 47 47 45 45 46 45 44 44 44 43 43 43 42 40 39 37 36 37 37 37 40 41 40 39 40 39 38 37 38 37 37 39 39 38 38 39 39 38 37 38 39
49 47 47 46 45 44 45 43 42 42 41 42 42 42 41 39 37 36 36 37 37 37 40 39 40 39 39 39 38 37 36 34 35 36 37 37 36 37 37 37 36 34 35
49 49 47 45 44 44 44 42 41 40 42 43 42 40 39 38 37 36 35 35 35 36 35 38 38 38 38 38 38 37 36 34 33 33 34 35 36 36 37 37 35 35 35
49 48 45 43 43 44 43 41 40 42 42 42 40 39 38 39 38 34 34 34 34 33 34 36 35 36 37 37 37 37 36 36 33 33 34 35 36 37 36 35 35 34 33
47 48 45 43 42 43 43 40 40 42 41 40 38 37 37 36 35 32 32 32 32 32 33 33 33 33 34 35 36 36 36 35 33 34 35 36 37 36 35 35 35 34 34
47 46 44 42 40 42 43 41 41 41 40 38 36 35 34 33 33 33 32 30 30 30 31 32 31 31 32 33 34 34 34 34 34 33 35 35 33 35 35 35 35 35 36
47 46 44 42 41 42 41 41 40 40 38 37 36 33 33 32 31 31 31 31 32 31 30 31 30 29 29 31 35 34 33 33 32 32 33 32 32 31 32 33 35 34 34
45 44 43 42 41 41 40 39 40 39 36 35 33 31 31 31 30 29 30 34 35 35 35 35 33 32 33 34 35 34 34 34 33 31 29 29 29 29 30 30 32 33 33
MSLP
1022.89 1022.83 1022.97 1022.99 1022.81 1022.59 1022.37 1022.24 1021.93 1021.31 1020.94 1020.00 1020.17 1020.17 1020.45 1020.85 1021.27 1021.03 1020.97 1020.73 1020.39 1019.82 1019.84 1018.89 1018.75 1018.06 1017.31 1016.98 1016.53 1015.96 1015.98 1015.86 1015.82 1016.06 1015.22 1014.73 1014.36 1014.21 1013.74 1013.45 1013.18 1012.78 1012.33
1023.12 1023.36 1023.51 1023.52 1023.35 1023.35 1023.29 1023.11 1022.96 1022.77 1022.28 1021.83 1022.08 1022.13 1021.90 1022.28 1022.44 1022.32 1021.91 1021.41 1020.85 1020.55 1020.86 1020.12 1019.48 1019.01 1018.37 1018.04 1017.31 1016.72 1016.27 1015.65 1015.28 1015.44 1015.18 1014.25 1013.41 1013.26 1012.84 1012.67 1012.36 1011.84 1011.48
1023.30 1023.75 1023.96 1024.08 1024.01 1023.96 1023.96 1023.69 1023.54 1023.40 1023.29 1023.15 1022.97 1022.72 1022.63 1022.68 1022.74 1022.76 1022.74 1022.53 1022.25 1021.95 1021.79 1020.98 1020.41 1020.41 1019.42 1019.08 1018.78 1018.21 1017.51 1016.10 1015.11 1015.10 1014.70 1014.06 1012.97 1012.51 1011.99 1011.68 1011.23 1010.89 1010.56
1023.54 1024.09 1024.40 1024.57 1024.61 1024.68 1024.53 1024.37 1024.29 1024.21 1024.25 1024.13 1024.11 1024.19 1024.25 1024.16 1024.28 1024.00 1023.56 1023.12 1022.75 1022.31 1021.84 1021.55 1021.24 1021.06 1020.35 1020.07 1018.93 1018.78 1018.15 1017.49 1015.97 1015.15 1014.65 1013.53 1012.91 1012.50 1011.16 1010.57 1010.54 1010.27 1009.98
1023.46 1024.26 1024.64 1024.93 1025.06 1025.04 1025.04 1024.92 1024.82 1024.76 1024.84 1024.88 1024.84 1024.99 1025.11 1025.07 1024.78 1024.39 1023.91 1023.51 1023.14 1022.87 1022.61 1022.34 1021.91 1021.48 1021.02 1020.44 1020.07 1018.90 1018.45 1017.96 1017.35 1016.30 1015.10 1013.67 1012.95 1012.38 1011.89 1009.86 1009.02 1009.09 1008.78
1023.54 1024.21 1024.72 1024.96 1025.24 1025.24 1025.33 1025.40 1025.39 1025.44 1025.35 1025.32 1025.26 1025.29 1025.43 1025.29 1024.99 1024.67 1024.29 1023.97 1023.68 1023.29 1023.00 1022.69 1022.41 1022.07 1021.65 1020.93 1020.23 1019.61 1019.04 1018.40 1017.02 1017.10 1015.84 1015.56 1014.53 1011.86 1011.10 1010.01 1008.94 1008.30 1007.12
1023.39 1024.21 1024.67 1025.08 1025.30 1025.37 1025.51 1025.61 1025.64 1025.69 1025.62 1025.57 1025.59 1025.63 1025.69 1025.64 1025.50 1025.24 1024.88 1024.42 1023.93 1023.52 1023.23 1022.88 1022.53 1022.27 1021.85 1021.24 1020.54 1019.66 1018.95 1018.29 1017.84 1017.36 1016.88 1015.91 1014.68 1013.82 1011.94 1009.81 1008.32 1007.58 1006.51
1023.23 1023.86 1024.40 1025.01 1025.40 1025.48 1025.62 1025.71 1025.79 1025.75 1025.68 1025.69 1025.73 1025.79 1025.74 1025.62 1025.52 1025.33 1025.09 1024.79 1024.37 1023.85 1023.28 1023.06 1022.70 1022.27 1021.83 1021.39 1020.97 1020.48 1019.79 1018.77 1018.33 1017.77 1017.14 1016.09 1015.84 1014.34 1013.11 1012.06 1009.93 1007.75 1006.00
1022.80 1023.56 1024.24 1024.81 1025.17 1025.47 1025.61 1025.75 1025.82 1025.87 1025.93 1025.92 1026.00 1025.96 1025.77 1025.58 1025.49 1025.36 1025.09 1024.74 1024.24 1023.50 1023.02 1022.87 1022.50 1022.05 1021.64 1021.18 1020.74 1020.43 1019.92 1019.12 1018.41 1018.04 1017.54 1017.04 1016.48 1014.83 1012.43 1012.54 1011.22 1009.05 1007.50
1022.70 1023.45 1024.10 1024.71 1025.09 1025.24 1025.56 1025.58 1025.67 1025.93 1026.06 1026.07 1026.09 1026.10 1025.91 1025.74 1025.62 1025.37 1025.14 1024.72 1024.09 1023.54 1023.09 1022.71 1022.27 1021.78 1021.29 1020.78 1020.37 1019.90 1019.34 1018.71 1018.48 1018.12 1017.44 1016.60 1015.43 1014.21 1012.69 1011.89 1010.41 1009.94 1008.24
1022.39 1023.17 1023.93 1024.54 1024.86 1025.13 1025.30 1025.56 1025.72 1025.97 1026.07 1026.13 1026.22 1026.12 1025.99 1025.83 1025.63 1025.47 1025.11 1024.68 1024.17 1023.62 1023.27 1022.86 1022.35 1021.85 1021.18 1020.60 1020.24 1019.73 1019.06 1018.39 1018.14 1017.66 1016.86 1016.08 1015.25 1014.01 1012.99 1011.97 1011.34 1010.31 1009.20
1021.98 1022.86 1023.77 1024.35 1024.77 1024.92 1025.21 1025.67 1025.94 1025.91 1025.96 1026.28 1026.25 1026.22 1026.15 1026.04 1025.80 1025.51 1025.12 1024.66 1024.33 1023.85 1023.46 1022.97 1022.55 1022.06 1021.50 1020.91 1020.33 1019.67 1019.06 1018.53 1018.01 1017.32 1016.86 1016.02 1014.94 1013.93 1012.94 1011.70 1010.56 1009.79 1008.70
1022.04 1022.98 1023.69 1024.13 1024.52 1024.95 1025.27 1025.52 1025.76 1025.86 1026.04 1026.25 1026.35 1026.40 1026.34 1026.06 1025.77 1025.50 1025.18 1024.74 1024.43 1024.05 1023.68 1023.28 1022.85 1022.28 1021.72 1021.11 1020.43 1020.13 1019.48 1018.79 1018.02 1017.25 1016.60 1015.75 1014.85 1013.76 1012.77 1011.61 1011.05 1009.60 1008.57
1021.61 1022.53 1023.38 1024.02 1024.60 1024.80 1024.98 1025.29 1025.65 1025.94 1026.19 1026.44 1026.54 1026.65 1026.45 1026.08 1025.78 1025.55 1025.26 1024.95 1024.58 1024.27 1023.89 1023.49 1023.05 1022.46 1021.79 1021.09 1020.57 1019.92 1019.26 1018.53 1017.72 1016.88 1016.11 1015.33 1014.47 1013.76 1012.69 1011.61 1010.60 1009.38 1008.38
1021.29 1022.30 1023.26 1023.89 1024.32 1024.69 1024.92 1025.27 1025.78 1026.02 1026.35 1026.58 1026.68 1026.72 1026.47 1026.19 1025.95 1025.71 1025.56 1025.28 1024.93 1024.53 1024.07 1023.59 1023.08 1022.54 1021.82 1021.09 1020.60 1020.03 1019.23 1018.32 1017.25 1016.34 1015.45 1014.65 1014.11 1013.52 1012.63 1011.72 1010.68 1009.53 1008.07
1021.02 1022.11 1022.89 1023.52 1024.07 1024.57 1024.99 1025.45 1025.86 1026.17 1026.43 1026.62 1026.73 1026.63 1026.54 1026.36 1026.21 1026.11 1025.92 1025.60 1025.16 1024.67 1024.21 1023.68 1023.24 1022.63 1021.98 1021.31 1020.81 1020.15 1019.25 1018.22 1017.05 1015.86 1014.88 1014.16 1013.42 1012.61 1012.01 1011.42 1010.78 1010.21 1009.20
1020.64 1021.75 1022.52 1023.23 1023.93 1024.47 1024.96 1025.49 1025.86 1026.25 1026.55 1026.70 1026.73 1026.75 1026.74 1026.64 1026.69 1026.48 1026.23 1025.89 1025.36 1024.85 1024.34 1023.79 1023.25 1022.67 1021.97 1021.43 1020.81 1020.07 1019.13 1017.97 1017.02 1015.92 1014.70 1013.59 1012.78 1012.13 1011.29 1010.71 1010.17 1009.51 1008.71
1020.51 1021.49 1022.30 1023.13 1023.81 1024.41 1024.96 1025.33 1025.76 1026.34 1026.61 1026.81 1026.85 1026.88 1026.88 1026.96 1026.84 1026.61 1026.38 1026.04 1025.61 1025.05 1024.46 1023.87 1023.26 1022.75 1021.95 1021.39 1020.74 1019.90 1018.81 1017.85 1016.83 1015.80 1014.63 1013.56 1012.40 1011.67 1011.04 1010.12 1009.30 1008.53 1007.76
1020.06 1021.09 1021.95 1022.81 1023.73 1024.44 1024.94 1025.46 1026.10 1026.45 1026.61 1026.85 1026.96 1026.98 1027.10 1027.10 1027.01 1026.78 1026.51 1026.18 1025.71 1025.19 1024.52 1023.99 1023.36 1022.77 1022.05 1021.47 1020.69 1019.80 1018.66 1017.54 1016.51 1015.52 1014.50 1013.39 1012.34 1011.40 1010.64 1009.72 1008.65 1007.73 1006.94
1019.96 1020.95 1021.84 1022.75 1023.64 1024.43 1024.83 1025.59 1026.23 1026.46 1026.66 1026.80 1026.88 1027.19 1027.26 1027.21 1027.18 1026.95 1026.64 1026.30 1025.85 1025.38 1024.69 1024.23 1023.56 1023.03 1022.27 1021.50 1020.80 1019.94 1018.76 1017.54 1016.37 1015.19 1013.97 1013.02 1012.18 1011.20 1010.38 1009.49 1008.55 1007.32 1006.43
1019.79 1020.74 1021.70 1022.70 1023.52 1024.26 1024.81 1025.66 1026.21 1026.55 1026.66 1026.67 1026.96 1027.24 1027.27 1027.25 1027.25 1027.12 1026.77 1026.43 1026.00 1025.56 1025.03 1024.28 1023.64 1023.00 1022.31 1021.53 1020.85 1020.03 1019.00 1017.98 1016.56 1015.13 1013.80 1012.83 1011.89 1010.90 1009.90 1009.03 1008.12 1007.04 1006.01
1019.73 1020.67 1021.77 1022.78 1023.54 1024.06 1024.67 1025.59 1026.16 1026.47 1026.58 1026.77 1027.03 1027.23 1027.35 1027.41 1027.33 1027.17 1026.89 1026.49 1026.17 1025.83 1025.25 1024.31 1023.65 1023.06 1022.35 1021.65 1020.83 1019.99 1019.28 1018.20 1016.92 1015.48 1014.18 1012.98 1011.81 1010.62 1009.36 1008.34 1007.34 1006.33 1005.47
1019.51 1020.59 1021.63 1022.81 1023.54 1024.06 1024.47 1025.39 1026.09 1026.29 1026.52 1026.79 1027.07 1027.21 1027.37 1027.46 1027.33 1027.15 1026.90 1026.60 1026.29 1026.04 1025.41 1024.61 1023.96 1023.22 1022.52 1021.76 1020.89 1019.96 1019.10 1018.00 1016.87 1015.74 1014.39 1013.05 1011.76 1010.42 1009.07 1008.12 1006.88 1005.70 1004.75
1019.36 1020.49 1021.68 1022.78 1023.69 1024.08 1024.53 1025.26 1025.90 1026.08 1026.39 1026.84 1027.14 1027.30 1027.45 1027.49 1027.33 1027.14 1026.86 1026.68 1026.49 1026.15 1025.64 1024.97 1024.41 1023.73 1022.82 1022.02 1021.07 1020.17 1019.09 1017.96 1016.79 1015.64 1014.42 1013.32 1012.19 1010.91 1009.71 1008.37 1007.26 1006.08 1004.95
1019.29 1020.30 1021.42 1022.48 1023.45 1024.09 1024.74 1025.28 1025.71 1025.99 1026.41 1026.76 1027.18 1027.58 1027.59 1027.52 1027.45 1027.22 1026.85 1026.64 1026.51 1026.24 1025.84 1025.38 1024.85 1024.10 1023.24 1022.57 1021.81 1020.82 1019.53 1018.46 1017.35 1015.89 1014.63 1013.45 1012.24 1011.06 1009.90 1008.80 1007.86 1006.60 1005.46
1019.19 1020.33 1021.28 1022.24 1023.29 1023.98 1024.75 1025.29 1025.61 1025.95 1026.40 1026.92 1027.39 1027.66 1027.71 1027.61 1027.49 1027.22 1026.88 1026.62 1026.33 1025.95 1025.66 1025.36 1024.97 1024.44 1023.76 1022.66 1021.74 1020.81 1019.82 1018.81 1017.60 1016.48 1015.57 1014.65 1013.65 1012.62 1011.43 1010.06 1008.67 1007.34 1006.16
Wind_Speed
9 10 11 9 10 12 15 15 16 18 13 12 8 8 9 9 10 10 14 15 13 15 14 8 10 12 8 9 9 4 6 7 4 3 9 9 8 9 10 8 10 13 14
8 9 9 9 9 9 12 13 14 14 12 10 7 4 4 6 7 8 11 13 14 16 13 12 11 11 10 14 11 8 9 5 4 7 4 10 11 7 9 9 12 17 12
11 8 10 8 9 10 10 12 12 14 14 12 9 7 4 4 6 10 9 10 13 11 12 13 11 12 10 8 10 12 15 10 10 7 8 5 11 10 5 10 11 14 12
11 9 8 8 8 7 7 8 8 10 11 11 10 12 8 8 6 7 7 8 12 13 14 14 12 10 9 11 10 11 10 9 9 10 8 13 12 12 17 11 5 7 9
13 10 8 7 5 7 7 7 8 8 7 7 8 7 8 4 4 6 10 11 10 11 11 13 11 11 8 10 12 14 11 9 7 7 12 12 11 12 12 17 14 13 9
12 10 7 7 6 4 7 6 7 6 6 7 7 8 7 7 8 8 8 8 8 9 11 12 10 9 10 11 10 10 11 9 9 9 8 10 12 11 12 14 17 18 16
13 10 9 7 5 6 5 5 6 5 5 6 6 6 5 5 6 5 6 8 8 7 10 11 11 9 10 10 10 12 13 10 10 12 10 8 10 10 13 16 16 16 14
13 11 9 8 7 6 6 6 5 5 6 5 5 4 4 2 2 3 3 4 4 6 7 8 8 9 10 9 8 8 8 9 8 12 11 12 12 10 9 8 12 15 17
12 12 9 8 7 7 6 7 6 5 5 4 4 4 4 5 5 7 5 4 5 8 10 8 9 9 9 9 9 7 8 11 7 10 12 11 10 10 9 9 10 9 11
10 10 9 8 6 7 6 7 6 5 4 5 4 3 4 5 6 5 6 7 8 9 11 10 11 11 11 10 9 10 11 10 10 11 13 13 12 13 11 11 11 10 10
13 11 8 7 8 7 7 7 7 6 6 5 4 5 5 6 6 6 6 7 8 9 11 11 12 13 14 12 10 12 12 14 16 14 16 17 17 13 11 11 9 11 11
13 12 11 9 7 7 7 7 5 6 4 3 5 6 6 6 6 6 7 7 8 7 9 11 12 13 15 14 14 14 14 16 15 17 17 17 14 17 15 12 12 14 13
13 11 10 9 7 7 7 6 5 4 5 5 6 6 6 6 6 7 7 6 7 10 10 12 13 14 14 15 13 16 15 15 16 18 15 16 16 16 14 13 13 13 13
16 12 9 8 7 7 7 6 5 4 4 6 6 6 6 6 6 7 8 10 11 12 12 12 12 12 12 12 16 16 15 16 15 15 17 17 15 16 18 16 16 12 12
15 13 11 8 7 7 7 6 5 5 5 6 6 5 6 6 6 7 9 11 11 11 12 12 12 12 13 12 16 17 17 17 18 16 16 14 16 23 19 11 14 16 11
16 14 12 10 8 8 7 6 5 6 6 6 5 5 6 6 6 7 10 11 11 11 11 12 11 13 10 17 20 19 16 17 17 17 16 15 18 17 17 16 21 14 14
16 15 13 10 9 8 7 6 5 6 6 5 4 5 5 6 6 8 9 10 11 11 11 12 12 14 13 16 22 24 15 15 16 17 17 16 12 15 14 18 18 16 15
16 14 12 9 9 7 7 6 7 6 6 5 5 5 5 5 6 8 9 9 9 11 10 13 14 14 12 19 23 25 16 17 17 17 17 18 18 16 16 16 16 15 13
15 13 10 11 8 8 7 8 7 6 6 5 5 5 5 5 6 8 8 8 9 10 12 12 15 14 14 20 24 23 16 16 16 16 17 17 18 23 24 17 17 17 15
14 13 11 10 10 7 8 9 6 6 5 4 4 5 4 4 5 6 7 7 8 9 9 12 11 15 14 19 22 22 13 15 15 16 16 19 18 24 24 15 16 17 16
16 12 13 11 9 8 9 8 6 6 4 4 6 5 4 5 5 5 5 6 8 7 8 13 11 12 13 15 23 25 14 13 14 13 13 12 24 26 26 25 16 17 17
14 12 12 10 7 8 10 7 7 5 5 5 6 5 5 5 5 5 5 5 6 8 9 11 11 9 12 18 21 25 23 21 13 13 12 14 27 26 25 20 21 25 18
13 13 13 10 7 7 9 8 6 6 5 5 5 4 4 4 4 5 5 5 6 7 10 8 11 12 11 11 23 23 25 22 14 13 17 25 27 25 17 23 24 17 9
15 12 14 12 8 7 8 9 6 6 5 4 4 3 4 4 4 3 3 3 4 6 7 8 10 11 12 13 14 14 13 17 15 17 13 15 17 16 14 14 14 11 11
13 14 13 11 10 9 9 7 6 6 5 4 4 3 3 3 4 3 4 4 4 4 6 6 7 10 11 13 20 20 14 13 15 14 12 13 14 15 15 14 15 12 12
14 12 13 12 10 11 9 7 6 6 5 5 4 2 1 2 3 4 3 4 8 11 11 12 9 9 16 23 24 25 24 23 22 11 12 13 14 14 14 14 14 12 14
Wind_Direction
80 67 58 44 47 46 43 39 37 27 26 17 13 25 37 28 29 25 16 18 12 16 7 13 0 356 331 291 274 242 225 252 216 242 261 257 242 246 251 248 246 251 248
87 74 60 46 38 42 47 44 42 36 35 32 22 13 4 29 38 18 14 13 18 21 7 10 8 7 356 354 343 305 286 274 199 239 281 277 271 253 249 246 248 252 248
109 84 66 52 44 42 37 44 40 42 36 32 31 30 22 29 20 15 11 8 12 10 12 17 16 353 6 2 347 342 339 297 283 233 235 279 264 283 235 239 242 249 250
114 105 86 63 56 46 54 51 46 46 45 36 41 41 37 23 1 357 359 1 4 8 11 7 6 355 4 353 357 340 339 331 331 297 250 250 257 268 283 251 243 244 251
127 123 117 109 93 74 66 51 45 48 47 49 54 51 45 24 360 6 8 8 6 8 6 2 357 357 350 347 342 346 334 340 323 328 331 273 254 254 256 273 266 259 245
130 126 129 122 111 96 89 84 69 53 54 48 41 47 42 23 20 10 12 6 2 0 1 358 354 351 345 341 337 336 327 330 343 336 322 326 316 267 245 255 262 263 262
136 140 137 125 116 98 89 102 76 57 60 64 57 54 51 35 17 358 354 353 356 358 349 353 351 349 342 336 335 332 328 338 340 332 328 331 296 327 329 282 263 263 262
148 152 152 152 153 136 109 100 88 58 46 51 45 40 38 27 352 330 324 315 322 332 326 332 333 337 341 342 334 328 325 312 328 323 324 333 322 316 326 304 333 301 265
152 150 152 153 142 138 126 117 102 59 39 38 33 26 22 16 359 345 335 315 312 335 334 320 322 326 328 333 335 337 325 312 334 323 324 317 307 313 321 310 293 296 319
147 145 145 148 145 132 130 110 101 82 43 38 28 30 15 12 3 350 344 334 335 338 337 332 334 329 325 326 329 338 334 323 335 329 319 322 320 319 315 305 319 305 285
155 152 147 143 140 133 121 104 85 74 48 41 24 40 12 10 6 356 343 339 340 342 342 337 334 336 335 334 327 328 330 332 333 325 328 321 317 310 312 305 299 300 315
155 149 147 144 138 125 113 113 101 78 55 47 38 40 18 8 3 349 338 335 336 340 342 340 338 341 339 335 332 326 330 336 323 325 322 315 313 310 306 297 311 307 301
146 144 142 141 131 132 128 115 96 73 45 46 55 32 12 7 353 346 342 341 346 350 351 347 343 341 337 336 331 343 334 325 323 319 311 309 311 309 307 309 310 300 306
149 144 136 141 145 137 126 112 93 71 64 64 53 33 4 356 355 350 350 356 359 354 349 348 340 335 329 329 342 335 329 323 317 313 312 309 305 313 310 304 301 305 306
145 147 147 146 141 121 114 99 88 76 79 72 52 16 358 359 359 355 4 357 355 350 344 340 337 331 337 346 340 338 331 325 318 312 311 307 304 299 292 312 321 317 304
151 149 145 141 135 127 118 107 96 84 97 72 45 15 10 2 1 17 1 355 345 341 338 337 335 336 332 327 339 338 332 322 320 317 314 311 305 301 301 315 318 300 310
151 147 144 138 130 127 125 117 107 105 88 76 43 26 14 10 29 9 1 346 339 332 336 336 337 336 329 345 340 333 325 319 316 315 313 310 303 305 304 306 301 299 293
146 143 141 132 133 129 123 121 100 111 94 68 48 29 22 41 18 9 355 343 338 336 338 345 348 342 334 346 340 336 327 326 319 314 311 310 307 304 302 302 300 299 295
146 145 141 133 130 131 134 103 105 102 87 69 49 35 46 38 18 4 347 340 340 338 351 347 351 341 343 344 339 337 333 323 319 318 314 310 306 303 300 300 301 299 293
142 142 132 130 126 137 119 111 118 104 93 79 55 67 49 36 14 346 340 336 339 336 348 342 348 345 340 340 341 340 331 327 327 323 321 316 308 305 302 296 301 298 296
145 135 132 136 140 137 118 117 120 110 115 85 77 87 45 25 5 338 330 330 336 330 339 349 348 344 343 342 345 345 341 337 328 326 329 328 324 316 309 302 296 290 295
142 134 130 134 140 131 119 125 117 130 103 79 99 80 55 23 360 345 331 335 340 344 339 344 349 344 344 343 345 347 350 341 333 332 327 324 328 329 320 310 299 294 294
141 139 134 130 131 131 127 121 141 124 104 83 114 88 64 26 351 352 345 345 351 350 350 343 350 344 344 343 347 346 348 346 339 336 335 340 343 337 337 333 322 313 302
141 137 134 136 137 134 122 131 140 123 108 92 122 86 49 22 356 351 351 346 341 349 349 346 349 342 345 347 348 349 345 346 346 340 340 342 342 347 343 346 343 340 335
141 143 143 142 145 134 128 133 132 120 109 104 110 82 35 4 355 353 340 342 314 333 346 344 341 344 344 340 344 352 350 351 343 339 348 352 354 353 350 351 349 345 343
143 141 143 140 141 131 131 131 124 122 119 103 117 94 50 319 352 344 346 323 338 339 344 342 355 345 338 339 348 354 351 355 353 356 359 354 352 351 347 345 342 346 345